Date String (YYYY-MM-DD hh:mm:ss) UTC,Instrument flags,absolute air pressure of the measurement (hPa),sample flow rate (lpm),inlet stack bypass flow (lpm),air temperature of the measurement (°C),ambient temperature measured by the external sensor (°C),aerosol sample conditioner tube jacket temperature (°C),OPC LED temperature (°C),internal box temperature (°C),relative humidity of the measurement (%),span deviation,mass concentration of particles derived from Lorenz-Mie calculation of OPC scattering (μg/m³),mass concentration of particles derived from Lorenz-Mie calculation of OPC scattering (μg/m³),mass concentration of particles derived from Lorenz-Mie calculation of OPC scattering (μg/m³)
DateTimeUTC,F1_M11,P_M11,Q1_M11,Q2_M11,T1_M11,T2_M11,T3_M11,T4_M11,T5_M11,U1_M11,ZSPAN_M11,X0_M11,X2_M11,X1_M11
2024-05-16 12:00:00,SystemResetWarning,0827.6,5.01,000.00,025.6,024.9,000.0,033.9,027.4,023.2,0000.0,0006.96,0002.77,0002.15
2024-05-16 12:01:00,SystemResetWarning,0827.5,5.01,000.00,025.6,024.9,000.0,033.9,027.4,023.2,0000.0,0006.58,0002.69,0002.13
2024-05-16 12:02:00,SystemResetWarning,0827.6,5.01,000.00,025.6,024.9,000.0,033.9,027.4,023.3,0000.0,0006.72,0002.70,0002.12
2024-05-16 12:03:00,SystemResetWarning,0827.6,5.00,000.00,025.6,024.9,000.0,033.9,027.4,023.3,0000.0,0005.15,0002.65,0002.11
2024-05-16 12:04:00,SystemResetWarning,0827.6,4.99,000.00,025.6,024.9,000.0,033.9,027.4,023.3,0000.0,0005.03,0002.64,0002.11
2024-05-16 12:05:00,SystemResetWarning,0827.6,5.00,000.00,025.6,024.9,000.0,033.9,027.4,023.3,0000.0,0005.33,0002.64,0002.11
2024-05-16 12:06:00,SystemResetWarning,0827.6,5.00,000.00,025.6,024.9,000.0,033.9,027.4,023.3,0000.0,0005.43,0002.64,0002.12
2024-05-16 12:07:00,SystemResetWarning,0827.6,5.01,000.00,025.6,024.9,000.0,033.9,027.4,023.3,0000.0,0005.42,0002.63,0002.13
2024-05-16 12:08:00,SystemResetWarning,0827.6,5.01,000.00,025.6,024.9,000.0,033.9,027.4,023.2,0000.0,0006.28,0002.62,0002.13
2024-05-16 12:09:00,SystemResetWarning,0827.6,5.00,000.00,025.6,024.9,000.0,033.9,027.4,023.2,0000.0,0006.39,0002.60,0002.14
2024-05-16 12:10:00,SystemResetWarning,0827.6,4.99,000.00,025.6,024.9,000.0,033.9,027.4,023.2,0000.0,0006.31,0002.59,0002.15
2024-05-16 12:11:00,SystemResetWarning,0827.5,5.00,000.00,025.6,024.9,000.0,033.9,027.4,023.2,0000.0,0006.42,0002.62,0002.16
2024-05-16 12:12:00,SystemResetWarning,0827.5,5.00,000.00,025.6,024.9,000.0,033.9,027.4,023.1,0000.0,0006.50,0002.66,0002.18
2024-05-16 12:13:00,SystemResetWarning,0827.6,5.00,000.00,025.6,024.9,000.0,033.9,027.4,023.1,0000.0,0006.37,0002.67,0002.19
2024-05-16 12:14:00,SystemResetWarning,0827.6,5.00,000.00,025.6,024.9,000.0,033.9,027.4,023.1,0000.0,0006.13,0002.62,0002.20
2024-05-16 12:15:00,SystemResetWarning,0827.6,5.01,000.00,025.6,024.9,000.0,033.9,027.4,023.0,0000.0,0006.13,0002.62,0002.19
2024-05-16 12:16:00,SystemResetWarning,0827.6,5.00,000.00,025.6,024.9,000.0,033.9,027.4,023.0,0000.0,0005.92,0002.63,0002.19
2024-05-16 12:17:00,SystemResetWarning,0827.6,4.99,000.00,025.6,024.9,000.0,033.9,027.4,023.0,0000.0,0005.61,0002.58,0002.18
2024-05-16 12:18:00,SystemResetWarning,0827.6,5.00,000.00,025.6,024.9,000.0,033.9,027.4,023.0,0000.0,0005.47,0002.52,0002.16
2024-05-16 12:19:00,SystemResetWarning,0827.7,5.00,000.00,025.6,024.9,000.0,033.9,027.4,023.0,0000.0,0004.62,0002.52,0002.15
2024-05-16 12:20:00,SystemResetWarning,0827.7,5.01,000.00,025.6,024.9,000.0,033.9,027.4,023.0,0000.0,0003.58,0002.52,0002.13
2024-05-16 12:21:00,SystemResetWarning,0827.7,5.01,000.00,025.7,024.9,000.0,033.9,027.4,023.0,0000.0,0003.53,0002.52,0002.11
2024-05-16 12:22:00,SystemResetWarning,0827.7,4.99,000.00,025.7,024.9,000.0,033.9,027.4,022.9,0000.0,0003.42,0002.50,0002.09
2024-05-16 12:23:00,SystemResetWarning,0827.6,5.00,000.00,025.7,024.9,000.0,033.9,027.4,022.9,0000.0,0003.48,0002.51,0002.09
2024-05-16 12:24:00,SystemResetWarning,0827.6,4.99,000.00,025.7,024.9,000.0,033.9,027.4,022.9,0000.0,0003.49,0002.51,0002.07
2024-05-16 12:25:00,SystemResetWarning,0827.6,5.00,000.00,025.7,024.9,000.0,033.9,027.4,022.9,0000.0,0003.60,0002.55,0002.07
2024-05-16 12:26:00,SystemResetWarning,0827.6,5.00,000.00,025.7,024.9,000.0,033.9,027.4,022.9,0000.0,0003.80,0002.59,0002.08
2024-05-16 12:27:00,SystemResetWarning,0827.5,5.01,000.00,025.7,024.9,000.0,033.9,027.4,022.8,0000.0,0003.88,0002.58,0002.08
2024-05-16 12:28:00,SystemResetWarning,0827.6,5.01,000.00,025.7,024.9,000.0,033.9,027.4,022.9,0000.0,0003.91,0002.61,0002.08
2024-05-16 12:29:00,SystemResetWarning,0827.6,5.00,000.00,025.7,025.0,000.0,033.9,027.4,022.8,0000.0,0004.00,0002.64,0002.08
2024-05-16 12:30:00,SystemResetWarning,0827.6,4.99,000.00,025.7,025.0,000.0,033.9,027.4,022.9,0000.0,0003.93,0002.63,0002.09
2024-05-16 12:31:00,SystemResetWarning,0827.6,4.99,000.00,025.7,025.0,000.0,033.9,027.4,022.9,0000.0,0003.93,0002.62,0002.10
2024-05-16 12:32:00,SystemResetWarning,0827.7,5.00,000.00,025.7,025.0,000.0,033.9,027.5,023.3,0000.0,0004.17,0002.60,0002.09
2024-05-16 12:33:00,SystemResetWarning,0827.7,5.02,000.00,025.7,025.0,000.0,033.9,027.5,023.5,0000.0,0004.24,0002.58,0002.10
2024-05-16 12:34:00,SystemResetWarning,0827.7,4.98,000.00,025.7,025.0,000.0,033.9,027.5,023.5,0000.0,0004.14,0002.58,0002.12
2024-05-16 12:35:00,SystemResetWarning,0827.7,5.00,000.00,025.7,025.0,000.0,033.9,027.5,023.4,0000.0,0004.15,0002.59,0002.13
2024-05-16 12:36:00,SystemResetWarning,0827.7,5.00,000.00,025.7,025.0,000.0,033.9,027.5,023.5,0000.0,0004.17,0002.57,0002.13
2024-05-16 12:37:00,SystemResetWarning,0827.7,5.00,000.00,025.7,025.0,000.0,033.9,027.5,023.4,0000.0,0004.44,0002.54,0002.12
2024-05-16 12:38:00,SystemResetWarning,0827.7,5.01,000.00,025.7,025.0,000.0,033.9,027.5,023.3,0000.0,0004.65,0002.53,0002.12
2024-05-16 12:39:00,SystemResetWarning,0827.7,5.00,000.00,025.7,025.0,000.0,033.9,027.5,023.4,0000.0,0004.70,0002.53,0002.10
2024-05-16 12:40:00,SystemResetWarning,0827.7,5.01,000.00,025.7,025.0,000.0,033.9,027.5,023.4,0000.0,0004.58,0002.50,0002.11
2024-05-16 12:41:00,SystemResetWarning,0827.7,4.99,000.00,025.7,025.0,000.0,033.9,027.5,023.3,0000.0,0004.60,0002.51,0002.10
2024-05-16 12:42:00,SystemResetWarning,0827.7,4.99,000.00,025.7,025.0,000.0,034.0,027.5,024.0,0000.0,0004.72,0002.53,0002.09
2024-05-16 12:43:00,SystemResetWarning,0827.7,4.99,000.00,025.7,025.0,000.0,034.0,027.5,023.9,0000.0,0004.60,0002.55,0002.07
2024-05-16 12:44:00,SystemResetWarning,0827.7,5.00,000.00,025.7,025.0,000.0,034.0,027.5,023.6,0000.0,0004.40,0002.51,0002.04
2024-05-16 12:45:00,SystemResetWarning,0827.7,5.01,000.00,025.7,025.0,000.0,034.0,027.5,023.9,0000.0,0004.34,0002.45,0001.98
2024-05-16 12:46:00,SystemResetWarning,0827.7,5.01,000.00,025.7,025.0,000.0,034.0,027.6,023.0,0000.0,0004.45,0002.40,0001.94
2024-05-16 12:47:00,SystemResetWarning,0827.7,5.00,000.00,025.8,025.1,000.0,034.0,027.5,022.6,0000.0,0005.12,0002.36,0001.91
2024-05-16 12:48:00,SystemResetWarning,0827.7,5.01,000.00,025.8,025.1,000.0,034.0,027.5,022.7,0000.0,0004.83,0002.35,0001.89
2024-05-16 12:49:00,SystemResetWarning,0827.7,4.99,000.00,025.8,025.1,000.0,034.0,027.6,022.5,0000.0,0004.60,0002.36,0001.86
2024-05-16 12:50:00,SystemResetWarning,0827.7,4.99,000.00,025.8,025.1,000.0,034.0,027.5,022.7,0000.0,0006.05,0002.35,0001.85
2024-05-16 12:51:00,SystemResetWarning,0827.7,4.99,000.00,025.8,025.1,000.0,034.0,027.5,022.6,0000.0,0006.22,0002.33,0001.84
2024-05-16 12:52:00,SystemResetWarning,0827.7,5.00,000.00,025.8,025.1,000.0,034.0,027.6,022.2,0000.0,0006.36,0002.36,0001.83
2024-05-16 12:53:00,SystemResetWarning,0827.7,5.00,000.00,025.8,025.1,000.0,034.0,027.6,022.3,0000.0,0006.50,0002.33,0001.81
2024-05-16 12:54:00,SystemResetWarning,0827.7,5.01,000.00,025.8,025.1,000.0,034.0,027.6,023.6,0000.0,0006.36,0002.28,0001.80
2024-05-16 12:55:00,SystemResetWarning,0827.7,5.00,000.00,025.8,025.1,000.0,034.0,027.5,024.0,0000.0,0006.37,0002.27,0001.80
2024-05-16 12:56:00,SystemResetWarning,0827.7,5.00,000.00,025.8,025.1,000.0,034.0,027.6,024.5,0000.0,0006.43,0002.26,0001.78
2024-05-16 12:57:00,SystemResetWarning,0827.7,5.00,000.00,025.8,025.1,000.0,034.0,027.6,025.3,0000.0,0006.42,0002.24,0001.80
2024-05-16 12:58:00,SystemResetWarning,0827.7,5.00,000.00,025.8,025.1,000.0,034.0,027.6,025.0,0000.0,0005.55,0002.29,0001.83
2024-05-16 12:59:00,SystemResetWarning,0827.7,5.00,000.00,025.8,025.1,000.0,034.0,027.6,025.1,0000.0,0005.61,0002.31,0001.84
